Change the Weather History Date:

Tuesday, July 10, 2012

  Actual Average Record
Temperature  
Mean Temperature 82 °F -  
Max Temperature 89 °F 92 °F 97 °F (1988)
Min Temperature 75 °F 74 °F 63 °F (1974)
Cooling Degree Days 16    
Growing Degree Days 32 (Base 50)    
Moisture  
Dew Point 76 °F    
Average Humidity 84    
Maximum Humidity 100    
Minimum Humidity 63    
Precipitation  
Precipitation 0.28 in - - ()
Sea Level Pressure  
Sea Level Pressure 30.02 in    
Wind  
Wind Speed 6 mph (ESE)    
Max Wind Speed 18 mph    
Max Gust Speed 23 mph    
Visibility 9 miles    
Events Rain , Thunderstorm    
Averages and records for this station are not official NWS values.
T = Trace of Precipitation, MM = Missing Value Source: NWS Daily Summary

Daily Weather History Graph

Daily Weather History Graph

Search for Another Location

Airport or City:

Trip Planner

Search our weather history database for the weather conditions in past years. The results will help you decide how hot, cold, wet, or windy it might be!

Date:

Astronomy

Jul. 10, 2012 Rise Set
Actual Time 6:35 AM EDT 8:16 PM EDT
Civil Twilight 6:09 AM EDT 8:41 PM EDT
Nautical Twilight 5:38 AM EDT 9:12 PM EDT
Astronomical Twilight 5:06 AM EDT 9:45 PM EDT
Moon 12:16 AM EDT (7/10) 1:11 PM EDT (7/10)
Length of Visible Light 14h 32m
Length of Day
13h 40m
Waning Gibbous, 54% of the Moon is Illuminated
Jul 10
Waning Gibbous
Jul 10
Last Quarter
Jul 19
New
Jul 26
First Quarter
Aug 1
Full

Hourly Weather History & Observations

Time (EDT) Temp. Heat Index Dew Point Humidity Pressure Visibility Wind Dir Wind Speed Gust Speed Precip Events Conditions
12:53 AM 82.9 °F 90.2 °F 75.0 °F 77% 30.04 in 10.0 mi ESE 9.2 mph - N/A   Clear
1:35 AM 82.4 °F 89.5 °F 75.2 °F 79% 30.02 in 10.0 mi ESE 6.9 mph - N/A Thunderstorm Thunderstorm
1:50 AM 78.8 °F - 73.4 °F 83% 30.02 in 7.0 mi East 9.2 mph - 0.01 in Rain Light Rain
1:53 AM 78.1 °F - 73.9 °F 87% 30.03 in 7.0 mi East 6.9 mph - 0.02 in Rain Rain
2:33 AM 78.8 °F - 77.0 °F 94% 30.01 in 10.0 mi Calm Calm - 0.02 in Thunderstorm Partly Cloudy
2:48 AM 78.8 °F - 77.0 °F 94% 30.01 in 10.0 mi Calm Calm - 0.02 in   Clear
2:53 AM 78.1 °F - 77.0 °F 96% 30.02 in 10.0 mi Calm Calm - 0.02 in   Clear
3:53 AM 78.1 °F - 77.0 °F 96% 30.01 in 10.0 mi Calm Calm - N/A   Clear
4:53 AM 78.1 °F - 77.0 °F 96% 30.00 in 10.0 mi NNE 3.5 mph - N/A   Clear
5:53 AM 78.1 °F - 78.1 °F 100% 30.02 in 10.0 mi Calm Calm - 0.00 in   Partly Cloudy
6:45 AM 78.8 °F - 77.0 °F 94% 30.03 in 10.0 mi North 3.5 mph - N/A Thunderstorm Thunderstorm
6:53 AM 79.0 °F - 77.0 °F 94% 30.03 in 10.0 mi NNE 3.5 mph - N/A Thunderstorm Thunderstorm
7:05 AM 75.2 °F - 75.2 °F 100% 30.03 in 2.5 mi ESE 18.4 mph 21.9 mph 0.05 in Rain , Thunderstorm Heavy Thunderstorms and Rain
7:09 AM 75.2 °F - 73.4 °F 94% 30.03 in 1.2 mi ESE 12.7 mph 21.9 mph 0.11 in Rain Heavy Rain
7:24 AM 75.2 °F - 75.2 °F 100% 30.04 in 3.0 mi Calm Calm - 0.22 in Rain Light Rain
7:53 AM 78.1 °F - 75.9 °F 93% 30.04 in 10.0 mi Calm Calm - 0.22 in   Partly Cloudy
8:53 AM 82.0 °F 90.2 °F 77.0 °F 85% 30.05 in 10.0 mi East 4.6 mph - N/A   Scattered Clouds
9:53 AM 84.9 °F 95.3 °F 77.0 °F 77% 30.06 in 10.0 mi East 11.5 mph - N/A   Clear
10:53 AM 84.9 °F 92.1 °F 73.9 °F 69% 30.06 in 10.0 mi ESE 9.2 mph - N/A   Scattered Clouds
11:53 AM 87.1 °F 97.3 °F 75.9 °F 69% 30.06 in 10.0 mi ESE 12.7 mph - N/A   Scattered Clouds
12:53 PM 87.1 °F 95.4 °F 73.9 °F 65% 30.05 in 10.0 mi ESE 16.1 mph 23.0 mph 0.00 in   Scattered Clouds
1:53 PM 87.1 °F 95.4 °F 73.9 °F 65% 30.01 in 10.0 mi SSE 10.4 mph - N/A   Partly Cloudy
2:53 PM 86.0 °F 93.0 °F 73.0 °F 65% 30.01 in 10.0 mi ESE 10.4 mph - N/A   Clear
3:53 PM 88.0 °F 97.5 °F 75.0 °F 65% 30.00 in 10.0 mi ESE 15.0 mph - N/A   Partly Cloudy
4:53 PM 88.0 °F 96.5 °F 73.9 °F 63% 30.00 in 10.0 mi SE 13.8 mph - N/A   Partly Cloudy
5:53 PM 82.9 °F 88.8 °F 73.0 °F 72% 29.98 in 10.0 mi SE 8.1 mph - 0.00 in   Partly Cloudy
6:53 PM 82.9 °F 91.8 °F 77.0 °F 82% 29.96 in 10.0 mi SSE 9.2 mph - 0.00 in   Partly Cloudy
7:53 PM 82.9 °F 91.8 °F 77.0 °F 82% 30.00 in 10.0 mi SE 5.8 mph - N/A   Clear
8:53 PM 82.0 °F 90.2 °F 77.0 °F 85% 30.03 in 10.0 mi South 4.6 mph - N/A   Clear
9:53 PM 82.0 °F 90.2 °F 77.0 °F 85% 30.04 in 10.0 mi South 3.5 mph - N/A   Clear
10:46 PM 82.4 °F 89.5 °F 75.2 °F 79% 30.03 in 10.0 mi Calm Calm - N/A Thunderstorm Clear
10:53 PM 82.0 °F 89.4 °F 75.9 °F 82% 30.03 in 10.0 mi Calm Calm - N/A Thunderstorm Clear
11:28 PM 80.6 °F 87.1 °F 77.0 °F 89% 30.03 in 10.0 mi WSW 5.8 mph - 0.02 in   Scattered Clouds
11:42 PM 78.8 °F - 77.0 °F 94% 30.04 in 10.0 mi ENE 8.1 mph - 0.02 in Thunderstorm Thunderstorm
11:53 PM 80.1 °F 85.4 °F 75.9 °F 87% 30.04 in 10.0 mi East 3.5 mph - 0.02 in   Partly Cloudy